Skykraft 4D

operational
NORAD ID: 64898 Int'l Des: 2025-154 Owner: SKYKR Country: AU
LEOCIRCULARRETROGRADESSO

About Skykraft 4D

Description loading...

Live Position

Loading 3D Globe...

Upcoming Passes

Altitude History

Altitude vs Time

uPlot chart will show altitude changes over time

Two-Line Element Set

1 64898U 25154K 25339.13883231 .00018061 00000-0 17158-2 0 9993
2 64898 97.6951 42.3461 0004973 164.5674 195.5699 14.93530886 18303
Epoch: Dec 5, 2025 • Age: 17 hours

Current Status

Altitude 613.8 km
Velocity 7.55 km/s
Sub-Earth Point -72.63°S, 174.53°E
Launch Date Jul 23, 2025
Age 0.3 years
Type other

Technical Details

Classification Payload
Mass 50.00 kg
Dry Mass 50.00 kg
Total Mass 50.00 kg
Length 0.60 m
Diameter 0.10 m
Span 0.60 m
Shape Box
Manufacturer SKYKR
Bus Type Skykraft
Phase Status In Orbit
Owner/State SKYKR/AU

Large Constellations

Loading constellations...